Location: Stanford
(52.2833°N, 2.4333°W)
Time: 22:23:02
(UTC+00:00)

Meteor 2-10 Rocket - Pass Details

Date: 22 January 2021
Orbit: 733 x 885 km, 81.2° (Epoch: 01 March)

Event Time Altitude Azimuth Distance (km) Brightness Sun altitude
Rises 17:34:58 0° 348° (NNW) 3,423 6.8 -8.5°
Reaches altitude 10° 17:37:29 10° 352° (N) 2,462 6.0 -8.9°
Maximum altitude 17:43:00 63° 73° (ENE) 907 3.6 -9.7°
Drops below altitude 10° 17:48:15 10° 155° (SSE) 2,343 6.0 -10.4°
Sets 17:50:36 0° 158° (SSE) 3,244 6.7 -10.8°
